GW5397 Weather Reports


time (UTC)temp
C
wind
direction
speed
KPH
gust
KPH
rain 1hr
cm
rain 24hr
cm
rain mn
cm
humidity
%
barometer
mb
20260508014711 15 17 0.0 0.0 0.00 0.00 0.00 33 1017.1
20260508014208 15 17 0.0 0.0 0.00 0.00 0.00 34 1017.3
20260508013703 16 17 0.0 0.0 0.00 0.00 0.00 34 1017.6
20260508013200 16 17 0.0 0.0 0.00 0.00 0.00 33 1017.1
20260508012658 16 17 0.0 0.0 0.00 0.00 0.00 33 1017.0
20260508012154 17 17 0.0 0.0 0.00 0.00 0.00 32 1017.0
20260508011653 17 17 0.0 0.0 0.00 0.00 0.00 32 1017.0
20260508011150 17 17 0.0 0.0 0.00 0.00 0.00 30 1017.1
20260508010647 17 17 0.0 0.0 0.00 0.00 0.00 30 1016.8
20260508010145 17 17 0.0 0.0 0.00 0.00 0.00 30 1017.0
20260508005642 18 17 0.0 0.0 0.00 0.00 0.00 30 1016.8
20260508005138 18 17 0.0 0.0 0.00 0.00 0.00 29 1016.9
20260508004634 18 18 0.0 0.0 0.00 0.00 0.00 28 1016.8
20260508004130 18 18 0.0 0.0 0.00 0.00 0.00 27 1016.9
20260508003627 19 18 0.0 0.0 0.00 0.00 0.00 27 1017.0
20260508003125 19 18 0.0 0.0 0.00 0.00 0.00 27 1016.9
20260508002621 18 19 0.0 0.0 0.00 0.00 0.00 27 1016.9
20260508002119 18 18 0.0 0.0 0.00 0.00 0.00 27 1017.0
20260508001614 18 18 0.0 0.0 0.00 0.00 0.00 28 1016.8
20260508001110 18 18 0.0 0.0 0.00 0.00 0.00 28 1016.9
20260508000606 18 18 0.0 0.0 0.00 0.00 0.00 27 1016.9
20260508000104 18 18 0.0 0.0 0.00 0.00 0.00 27 1016.9
20260507235600 18 18 0.0 0.0 0.00 0.00 0.00 28 1016.8
20260507235058 18 17 0.0 0.0 0.00 0.00 0.00 27 1017.1
20260507234554 18 17 0.0 0.0 0.00 0.00 0.00 27 1016.9
20260507234050 18 18 0.0 0.0 0.00 0.00 0.00 27 1016.9
20260507233547 20 18 0.0 0.0 0.00 0.00 0.00 25 1017.0
20260507233046 20 18 0.0 0.0 0.00 0.00 0.00 26 1017.0
20260507232542 20 19 0.0 0.0 0.00 0.00 0.00 25 1017.0
20260507232039 19 20 0.0 0.0 0.00 0.00 0.00 27 1016.5
20260507231536 18 18 0.0 0.0 0.00 0.00 0.00 27 1016.8
20260507231033 18 18 0.0 0.0 0.00 0.00 0.00 28 1017.0
20260507230530 18 18 0.0 0.0 0.00 0.00 0.00 27 1017.0
20260507230026 18 18 0.0 0.0 0.00 0.00 0.00 27 1016.8
20260507225521 18 18 0.0 0.0 0.00 0.00 0.00 28 1017.0
20260507225018 18 18 0.0 1.6 0.00 0.00 0.00 27 1016.7
20260507224513 18 19 0.0 1.6 0.00 0.00 0.00 27 1017.0
20260507224010 18 18 0.0 1.6 0.00 0.00 0.00 27 1016.8
20260507223506 18 18 0.0 0.0 0.00 0.00 0.00 27 1017.1
20260507223004 18 19 0.0 0.0 0.00 0.00 0.00 28 1017.1
20260507222501 20 19 0.0 0.0 0.00 0.00 0.00 27 1017.0
20260507221957 21 19 0.0 0.0 0.00 0.00 0.00 26 1016.9
20260507221454 18 20 0.0 1.6 0.00 0.00 0.00 28 1017.3
20260507220950 19 18 0.0 0.0 0.00 0.00 0.00 28 1017.1
20260507220448 19 18 0.0 0.0 0.00 0.00 0.00 29 1017.3
20260507215944 19 18 0.0 0.0 0.00 0.00 0.00 29 1017.4
20260507215441 18 18 0.0 0.0 0.00 0.00 0.00 29 1017.3
20260507214938 18 18 0.0 0.0 0.00 0.00 0.00 28 1017.7
20260507214436 18 18 0.0 0.0 0.00 0.00 0.00 29 1017.1
20260507213931 20 18 0.0 0.0 0.00 0.00 0.00 29 1017.4
20260507213428 20 19 0.0 0.0 0.00 0.00 0.00 28 1017.3
20260507212925 20 19 0.0 0.0 0.00 0.00 0.00 27 1017.5
20260507212420 19 20 0.0 0.0 0.00 0.00 0.00 28 1017.4
20260507211918 18 18 0.0 0.0 0.00 0.00 0.00 31 1017.5
20260507211414 18 18 0.0 0.0 0.00 0.00 0.00 28 1017.4
20260507210911 18 18 0.0 0.0 0.00 0.00 0.00 29 1017.6
20260507210408 18 18 1.6 3.2 0.00 0.00 0.00 28 1017.5
20260507205904 18 19 0.0 1.6 0.00 0.00 0.00 29 1017.9
20260507205402 18 19 1.6 3.2 0.00 0.00 0.00 28 1018.0
20260507204858 18 18 1.6 3.2 0.00 0.00 0.00 27 1017.9
20260507204355 18 20 1.6 4.8 0.00 0.00 0.00 28 1018.0
20260507203852 19 20 1.6 4.8 0.00 0.00 0.00 27 1017.9
20260507203350 18 19 1.6 3.2 0.00 0.00 0.00 28 1018.0
20260507202846 18 19 3.2 8.0 0.00 0.00 0.00 27 1018.2
20260507202343 18 19 0.0 0.0 0.00 0.00 0.00 27 1018.5
20260507201838 18 19 3.2 8.0 0.00 0.00 0.00 27 1018.5
20260507201334 18 19 4.8 11.3 0.00 0.00 0.00 27 1018.4
20260507200830 18 19 9.7 16.1 0.00 0.00 0.00 27 1018.7
20260507200327 18 19 6.4 8.0 0.00 0.00 0.00 27 1018.4
20260507195823 20 19 14.5 20.9 0.00 0.00 0.00 27 1018.7
20260507195320 18 19 4.8 11.3 0.00 0.00 0.00 28 1018.6
20260507194817 18 19 8.0 11.3 0.00 0.00 0.00 27 1019.1
20260507194313 18 19 1.6 1.6 0.00 0.00 0.00 27 1019.2
20260507193810 18 19 4.8 11.3 0.00 0.00 0.00 27 1019.3
20260507193308 19 19 1.6 4.8 0.00 0.00 0.00 26 1019.1
20260507192803 18 19 0.0 0.0 0.00 0.00 0.00 26 1019.2
20260507192300 18 19 4.8 4.8 0.00 0.00 0.00 26 1019.2
20260507191756 18 19 1.6 3.2 0.00 0.00 0.00 26 1019.2
20260507191253 20 19 0.0 1.6 0.00 0.00 0.00 25 1019.6
20260507190750 18 19 1.6 3.2 0.00 0.00 0.00 26 1019.4
20260507190248 19 19 8.0 11.3 0.00 0.00 0.00 25 1019.6
20260507185746 19 19 1.6 4.8 0.00 0.00 0.00 25 1019.7
20260507185243 18 19 0.0 0.0 0.00 0.00 0.00 22 1019.4
20260507184741 19 19 4.8 9.7 0.00 0.00 0.00 24 1019.6
20260507184238 18 19 0.0 1.6 0.00 0.00 0.00 24 1019.7
20260507183735 18 19 0.0 0.0 0.00 0.00 0.00 22 1019.7
20260507183232 20 19 0.0 1.6 0.00 0.00 0.00 22 1019.6
20260507182730 18 19 0.0 0.0 0.00 0.00 0.00 23 1019.6
20260507182230 18 19 0.0 0.0 0.00 0.00 0.00 22 1019.4
20260507181727 18 19 0.0 1.6 0.00 0.00 0.00 22 1019.4
20260507181223 19 19 0.0 1.6 0.00 0.00 0.00 22 1019.6
20260507180720 17 19 0.0 0.0 0.00 0.00 0.00 23 1019.7
20260507180217 18 19 4.8 4.8 0.00 0.00 0.00 23 1020.0
20260507175712 18 18 0.0 0.0 0.00 0.00 0.00 22 1020.0
20260507175210 18 18 3.2 4.8 0.00 0.00 0.00 23 1019.9
20260507174708 18 18 0.0 0.0 0.00 0.00 0.00 24 1019.9
20260507174205 17 18 0.0 0.0 0.00 0.00 0.00 23 1020.2
20260507173702 17 18 3.2 3.2 0.00 0.00 0.00 22 1020.4
20260507173159 17 18 0.0 0.0 0.00 0.00 0.00 23 1020.7
20260507172656 17 19 0.0 0.0 0.00 0.00 0.00 21 1020.5
20260507172153 17 18 0.0 0.0 0.00 0.00 0.00 22 1020.4
20260507171652 17 17 0.0 0.0 0.00 0.00 0.00 20 1020.7
20260507171150 17 18 0.0 0.0 0.00 0.00 0.00 23 1020.7
20260507170647 15 18 0.0 1.6 0.00 0.00 0.00 23 1020.8
20260507170144 16 18 1.6 3.2 0.00 0.00 0.00 23 1020.8
20260507165639 17 18 0.0 0.0 0.00 0.00 0.00 24 1020.7
20260507165136 16 18 0.0 0.0 0.00 0.00 0.00 26 1021.0
20260507164632 16 18 0.0 0.0 0.00 0.00 0.00 23 1020.9
20260507164129 16 17 0.0 0.0 0.00 0.00 0.00 25 1020.9
20260507163626 16 18 0.0 0.0 0.00 0.00 0.00 27 1021.1
20260507163124 16 17 0.0 0.0 0.00 0.00 0.00 30 1021.0
20260507162620 15 18 0.0 0.0 0.00 0.00 0.00 27 1020.9
20260507162116 16 17 0.0 0.0 0.00 0.00 0.00 28 1021.3
20260507161612 15 18 0.0 0.0 0.00 0.00 0.00 27 1021.3
20260507161109 15 18 1.6 3.2 0.00 0.00 0.00 28 1021.0
20260507160606 15 18 0.0 0.0 0.00 0.00 0.00 27 1021.1
20260507155557 15 17 0.0 0.0 0.00 0.00 0.00 29 1021.3
20260507155055 15 18 0.0 0.0 0.00 0.00 0.00 29 1021.3
20260507154551 15 18 1.6 4.8 0.00 0.00 0.00 29 1021.4
20260507154048 15 17 0.0 0.0 0.00 0.00 0.00 31 1021.4
20260507153545 15 17 0.0 0.0 0.00 0.00 0.00 30 1021.5
20260507153041 15 17 0.0 0.0 0.00 0.00 0.00 30 1021.3
20260507152537 14 17 0.0 0.0 0.00 0.00 0.00 32 1021.3
20260507152034 14 16 0.0 0.0 0.00 0.00 0.00 31 1021.4
20260507151530 13 17 0.0 0.0 0.00 0.00 0.00 32 1021.3
20260507151027 13 17 0.0 0.0 0.00 0.00 0.00 33 1021.3
20260507150524 13 17 0.0 0.0 0.00 0.00 0.00 34 1021.1
20260507150021 13 17 0.0 0.0 0.00 0.00 0.00 34 1021.4
20260507145516 13 17 0.0 0.0 0.00 0.00 0.00 35 1021.3
20260507145014 12 16 0.0 0.0 0.00 0.00 0.00 33 1021.3
20260507144510 12 16 0.0 0.0 0.00 0.00 0.00 33 1021.1
20260507144008 12 17 0.0 0.0 0.00 0.00 0.00 33 1021.3
20260507143505 12 17 0.0 0.0 0.00 0.00 0.00 37 1021.0
20260507143002 12 17 0.0 0.0 0.00 0.00 0.00 37 1021.3
20260507142457 11 17 0.0 0.0 0.00 0.00 0.00 38 1021.3
20260507141954 11 17 0.0 0.0 0.00 0.00 0.00 39 1021.4
20260507141450 12 17 0.0 0.0 0.00 0.00 0.00 38 1021.0
20260507140947 11 17 0.0 0.0 0.00 0.00 0.00 38 1021.3
20260507140444 11 16 0.0 0.0 0.00 0.00 0.00 38 1021.4
20260507135942 11 16 0.0 0.0 0.00 0.00 0.00 39 1021.3
20260507135438 11 16 0.0 0.0 0.00 0.00 0.00 39 1021.3
20260507134936 11 17 0.0 0.0 0.00 0.00 0.00 41 1021.5
20260507134432 11 17 0.0 0.0 0.00 0.00 0.00 36 1021.1
20260507133928 10 17 0.0 0.0 0.00 0.00 0.00 38 1021.4
20260507133424 10 15 0.0 0.0 0.00 0.00 0.00 41 1021.1
20260507132923 9 15 0.0 0.0 0.00 0.00 0.00 42 1020.9
20260507132418 8 15 0.0 0.0 0.00 0.00 0.00 47 1021.1
20260507131915 8 15 0.0 0.0 0.00 0.00 0.00 43 1021.4
20260507131413 7 15 0.0 0.0 0.00 0.00 0.00 51 1021.0
20260507130909 7 15 0.0 0.0 0.00 0.00 0.00 51 1021.4
20260507130406 6 15 0.0 0.0 0.00 0.00 0.00 56 1021.3
20260507125905 5 15 0.0 0.0 0.00 0.00 0.00 65 1021.3
20260507125402 5 15 0.0 0.0 0.00 0.00 0.00 61 1021.3
20260507124900 3 15 0.0 0.0 0.00 0.00 0.00 61 1021.1
20260507124355 3 15 0.0 0.0 0.00 0.00 0.00 64 1021.1
20260507123854 3 15 0.0 0.0 0.00 0.00 0.00 67 1020.9
20260507123351 3 15 0.0 0.0 0.00 0.00 0.00 60 1021.0
20260507122847 1 16 0.0 0.0 0.00 0.00 0.00 69 1020.9
20260507122343 1 17 0.0 0.0 0.00 0.00 0.00 70 1020.9
20260507121839 1 17 0.0 0.0 0.00 0.00 0.00 67 1021.0
20260507121335 1 17 0.0 0.0 0.00 0.00 0.00 68 1020.9
20260507120832 0 17 0.0 0.0 0.00 0.00 0.00 74 1020.9
20260507120328 0 17 0.0 0.0 0.00 0.00 0.00 76 1021.0
20260507115824 0 17 0.0 0.0 0.00 0.00 0.00 72 1020.8
20260507115320 1 17 0.0 0.0 0.00 0.00 0.00 66 1020.9
20260507114816 0 17 0.0 0.0 0.00 0.00 0.00 71 1020.9
20260507114313 0 17 0.0 0.0 0.00 0.00 0.00 73 1020.9
20260507113811 0 17 0.0 0.0 0.00 0.00 0.00 74 1021.1
20260507113307 1 17 0.0 0.0 0.00 0.00 0.00 70 1021.0
20260507112805 1 17 0.0 0.0 0.00 0.00 0.00 69 1020.9
20260507112306 1 17 0.0 0.0 0.00 0.00 0.00 69 1020.8
20260507111800 0 17 0.0 0.0 0.00 0.00 0.00 73 1021.0
20260507111256 0 17 0.0 0.0 0.00 0.00 0.00 73 1020.9
20260507110752 1 17 0.0 0.0 0.00 0.00 0.00 70 1021.1
20260507110249 1 17 0.0 0.0 0.00 0.00 0.00 71 1020.9
20260507105746 0 17 0.0 0.0 0.00 0.00 0.00 73 1021.1
20260507105241 0 17 0.0 0.0 0.00 0.00 0.00 77 1020.9
20260507104739 0 17 0.0 0.0 0.00 0.00 0.00 79 1021.1
20260507104236 0 17 0.0 0.0 0.00 0.00 0.00 77 1021.1
20260507103732 0 17 0.0 0.0 0.00 0.00 0.00 74 1021.1
20260507103228 0 17 0.0 0.0 0.00 0.00 0.00 74 1021.4
20260507102724 0 17 0.0 0.0 0.00 0.00 0.00 72 1021.3
20260507102221 0 17 0.0 0.0 0.00 0.00 0.00 74 1020.9
20260507101717 0 17 0.0 0.0 0.00 0.00 0.00 76 1021.0
20260507101212 0 17 0.0 0.0 0.00 0.00 0.00 77 1021.1
20260507100710 0 17 0.0 0.0 0.00 0.00 0.00 79 1021.1
20260507100208 0 17 0.0 0.0 0.00 0.00 0.00 78 1021.4
20260507095706 0 17 0.0 0.0 0.00 0.00 0.00 81 1021.4
20260507095202 0 17 0.0 0.0 0.00 0.00 0.00 78 1021.3
20260507094659 0 17 0.0 0.0 0.00 0.00 0.00 76 1021.1
20260507094155 0 17 0.0 0.0 0.00 0.00 0.00 75 1021.1
20260507093653 0 17 0.0 0.0 0.00 0.00 0.00 78 1021.4
20260507093152 0 17 0.0 0.0 0.00 0.00 0.00 76 1021.6
20260507092648 0 17 0.0 0.0 0.00 0.00 0.00 76 1021.3
20260507092145 1 17 0.0 0.0 0.00 0.00 0.00 71 1021.5
20260507091641 0 17 0.0 0.0 0.00 0.00 0.00 71 1021.7
20260507091137 0 17 0.0 0.0 0.00 0.00 0.00 81 1021.3
20260507090633 -1 17 0.0 0.0 0.00 0.00 0.00 80 1021.6
20260507090131 -1 17 0.0 0.0 0.00 0.00 0.00 84 1021.4
20260507085627 -1 16 0.0 0.0 0.00 0.00 0.00 85 1021.5
20260507085124 -1 16 0.0 0.0 0.00 0.00 0.00 87 1021.9
20260507084621 -1 16 0.0 0.0 0.00 0.00 0.00 87 1021.7
20260507084118 -2 16 0.0 0.0 0.00 0.00 0.00 90 1021.9
20260507083615 -2 16 0.0 0.0 0.00 0.00 0.00 89 1021.5
20260507083112 -2 16 0.0 0.0 0.00 0.00 0.00 90 1022.0
20260507082607 -2 16 0.0 0.0 0.00 0.00 0.00 91 1021.7
20260507082104 -2 17 0.0 0.0 0.00 0.00 0.00 89 1021.9
20260507081600 -2 16 0.0 0.0 0.00 0.00 0.00 90 1021.9
20260507081057 -2 16 0.0 0.0 0.00 0.00 0.00 93 1022.0
20260507080553 -2 16 0.0 0.0 0.00 0.00 0.00 92 1022.1
20260507080050 -2 16 0.0 0.0 0.00 0.00 0.00 93 1022.0
20260507075545 -2 16 0.0 0.0 0.00 0.00 0.00 93 1022.1
20260507075041 -2 16 0.0 0.0 0.00 0.00 0.00 94 1022.2
20260507074538 -2 16 0.0 0.0 0.00 0.00 0.00 95 1022.1
20260507074037 -2 16 0.0 0.0 0.00 0.00 0.00 95 1022.2
20260507073532 -2 16 0.0 0.0 0.00 0.00 0.00 96 1022.5
20260507073029 -2 17 0.0 0.0 0.00 0.00 0.00 96 1022.5
20260507072527 -2 16 0.0 0.0 0.00 0.00 0.00 96 1022.7
20260507072024 -2 16 0.0 0.0 0.00 0.00 0.00 95 1022.5
20260507071521 -2 17 0.0 0.0 0.00 0.00 0.00 95 1022.5
20260507071018 -2 17 0.0 0.0 0.00 0.00 0.00 96 1022.5
20260507070515 -1 16 0.0 0.0 0.00 0.00 0.00 96 1022.7
20260507070013 -1 17 0.0 0.0 0.00 0.00 0.00 96 1022.8
20260507065508 -1 17 0.0 0.0 0.00 0.00 0.00 96 1023.0
20260507065005 -1 17 0.0 0.0 0.00 0.00 0.00 96 1022.6
20260507064504 -1 17 0.0 0.0 0.00 0.00 0.00 95 1023.0
20260507064001 -1 16 0.0 0.0 0.00 0.00 0.00 95 1022.7
20260507063458 -1 17 0.0 0.0 0.00 0.00 0.00 94 1022.6
20260507062955 -1 16 0.0 0.0 0.00 0.00 0.00 94 1022.8
20260507062452 -1 16 0.0 0.0 0.00 0.00 0.00 95 1022.7
20260507061949 -1 16 0.0 0.0 0.00 0.00 0.00 95 1022.5
20260507061447 -1 17 0.0 0.0 0.00 0.00 0.00 94 1022.6
20260507060945 -1 17 0.0 0.0 0.00 0.00 0.00 94 1022.6
20260507060442 -1 17 0.0 0.0 0.00 0.00 0.00 94 1022.5
20260507055938 -1 17 0.0 0.0 0.00 0.30 0.30 93 1022.6
20260507055434 -1 17 0.0 0.0 0.00 0.30 0.30 94 1022.6
20260507054931 -1 17 0.0 0.0 0.00 0.30 0.30 93 1022.7
20260507054427 -1 17 0.0 0.0 0.00 0.30 0.30 93 1022.8
20260507053924 -1 17 0.0 0.0 0.00 0.30 0.30 93 1022.5
20260507053422 -1 17 0.0 0.0 0.00 0.30 0.30 93 1022.0
20260507052920 -1 17 0.0 0.0 0.00 0.30 0.30 92 1022.4
20260507052417 -1 17 0.0 0.0 0.00 0.30 0.30 93 1022.1
20260507051914 -1 17 0.0 0.0 0.00 0.30 0.30 92 1022.4
20260507051412 -1 17 0.0 0.0 0.00 0.30 0.30 92 1022.1
20260507050909 -1 17 0.0 0.0 0.00 0.30 0.30 93 1021.9
20260507050405 -1 17 0.0 0.0 0.00 0.30 0.30 93 1022.1
20260507045902 -1 17 0.0 0.0 0.00 0.30 0.30 92 1022.1
20260507045359 -1 17 0.0 0.0 0.00 0.30 0.30 91 1022.2
20260507044856 -1 17 0.0 0.0 0.00 0.30 0.30 91 1022.2
20260507044352 -1 17 0.0 0.0 0.00 0.30 0.30 91 1022.1
20260507043848 -1 17 0.0 0.0 0.00 0.30 0.30 91 1022.2
20260507043345 -1 17 0.0 0.0 0.00 0.30 0.30 91 1022.5
20260507042841 -1 17 0.0 0.0 0.00 0.30 0.30 91 1022.2
20260507042337 -1 17 0.0 0.0 0.00 0.30 0.30 91 1022.4
20260507041834 -1 17 0.0 0.0 0.00 0.30 0.30 91 1022.1
20260507041331 -1 17 0.0 0.0 0.00 0.30 0.30 91 1022.2
20260507040828 0 17 0.0 0.0 0.00 0.30 0.30 91 1022.4
20260507040324 -1 17 0.0 0.0 0.00 0.30 0.30 91 1022.4
20260507035820 -1 17 0.0 0.0 0.00 0.30 0.30 92 1022.2
20260507035315 -1 17 0.0 0.0 0.00 0.30 0.30 92 1022.2
20260507034814 -1 17 0.0 0.0 0.00 0.30 0.30 92 1022.0
20260507034310 -1 17 0.0 0.0 0.00 0.30 0.30 92 1022.0
20260507033809 -1 17 0.0 0.0 0.00 0.30 0.30 92 1022.4
20260507033306 -1 17 0.0 0.0 0.00 0.30 0.30 92 1021.9
20260507032803 -1 17 0.0 0.0 0.00 0.30 0.30 92 1022.1
20260507032259 -1 17 0.0 0.0 0.00 0.30 0.30 93 1022.0
20260507031755 -1 17 0.0 0.0 0.00 0.30 0.30 93 1022.0
20260507031252 -1 17 0.0 0.0 0.00 0.30 0.30 92 1022.0
20260507030749 0 17 0.0 0.0 0.00 0.30 0.30 92 1021.9
20260507030246 0 17 0.0 0.0 0.00 0.30 0.30 91 1022.0
20260507025743 0 17 0.0 0.0 0.00 0.30 0.30 92 1021.9
20260507025240 0 17 0.0 0.0 0.00 0.30 0.30 93 1021.4
20260507024739 0 17 0.0 0.0 0.00 0.30 0.30 94 1021.7
20260507024236 0 17 0.0 0.0 0.00 0.30 0.30 93 1021.5
20260507023731 0 17 0.0 0.0 0.00 0.30 0.30 93 1021.4
20260507023228 0 17 0.0 0.0 0.00 0.30 0.30 93 1021.5
20260507022726 0 17 0.0 0.0 0.00 0.30 0.30 92 1021.6
20260507022221 0 17 0.0 0.0 0.00 0.30 0.30 92 1021.7
20260507021718 0 17 0.0 0.0 0.00 0.30 0.30 92 1021.9
20260507021213 0 17 0.0 0.0 0.00 0.30 0.30 92 1021.7
20260507020712 0 17 0.0 0.0 0.00 0.30 0.30 91 1021.7
20260507020208 0 17 0.0 0.0 0.00 0.30 0.30 90 1021.5
20260507015706 0 17 0.0 0.0 0.00 0.30 0.30 90 1021.4
20260507015203 0 17 0.0 0.0 0.00 0.30 0.30 89 1021.5